Location: Austin
(30.3000°N, 97.7500°W)
Time: 12:22:41
(UTC-05:00)

ERS-1 Rocket - Pass Details

Date: 26 May 2023
Orbit: 752 x 755 km, 98.3° (Epoch: 31 May)

Event Time Altitude Azimuth Distance (km) Brightness Sun altitude
Exits shadow 22:27:01 30° 71° (ENE) 1,323 4.0 -22.5°
Drops below altitude 10° 22:31:22 10° 11° (NNE) 2,283 5.9 -23.2°
Sets 22:33:53 0° 1° (N) 3,212 6.9 -23.6°
